Year,Month,Day,Hour,Minute,Value (Times are PST for barometer in hPa)
2021,02,09,00,00,912.02
2021,02,09,00,01,915.22
2021,02,09,00,02,915.66
2021,02,09,00,03,915.38
2021,02,09,00,04,915.20
2021,02,09,00,05,914.91
2021,02,09,00,06,914.64
2021,02,09,00,07,914.58
2021,02,09,00,08,914.75
2021,02,09,00,09,915.04
2021,02,09,00,10,915.04
2021,02,09,00,11,915.19
2021,02,09,00,12,915.73
2021,02,09,00,13,916.02
2021,02,09,00,14,915.64
2021,02,09,00,15,914.36
2021,02,09,00,16,914.02
2021,02,09,00,17,914.22
2021,02,09,00,18,914.55
2021,02,09,00,19,914.09
2021,02,09,00,20,913.98
2021,02,09,00,21,913.72
2021,02,09,00,22,912.37
2021,02,09,00,23,909.51
2021,02,09,00,24,909.66
2021,02,09,00,25,909.95
2021,02,09,00,26,910.12
2021,02,09,00,27,909.99
2021,02,09,00,28,910.39
2021,02,09,00,29,911.05
2021,02,09,00,30,910.61
2021,02,09,00,31,910.19
2021,02,09,00,32,910.19
2021,02,09,00,33,909.96
2021,02,09,00,34,909.55
2021,02,09,00,35,909.55
2021,02,09,00,36,909.60
2021,02,09,00,37,909.69
2021,02,09,00,38,909.99
2021,02,09,00,39,910.67
2021,02,09,00,40,910.87
2021,02,09,00,41,911.08
2021,02,09,00,42,910.84
2021,02,09,00,43,910.84
2021,02,09,00,44,909.72
2021,02,09,00,45,907.89
2021,02,09,00,46,907.89
2021,02,09,00,47,907.89
2021,02,09,00,48,906.87
2021,02,09,00,49,905.08
2021,02,09,00,50,905.08
2021,02,09,00,51,905.08
2021,02,09,00,52,907.32
2021,02,09,00,53,911.04
2021,02,09,00,54,910.55
2021,02,09,00,55,910.42
2021,02,09,00,56,910.59
2021,02,09,00,57,910.74
2021,02,09,00,58,910.90
2021,02,09,00,59,910.84
2021,02,09,01,00,911.01
2021,02,09,01,01,911.14
2021,02,09,01,02,910.63
2021,02,09,01,03,910.52
2021,02,09,01,04,910.94
2021,02,09,01,05,910.41
2021,02,09,01,06,909.32
2021,02,09,01,07,908.78
2021,02,09,01,08,908.62
2021,02,09,01,09,908.77
2021,02,09,01,10,908.77
2021,02,09,01,11,908.77
2021,02,09,01,12,908.77
2021,02,09,01,13,907.17
2021,02,09,01,14,904.81
2021,02,09,01,15,905.15
2021,02,09,01,16,905.70
2021,02,09,01,17,906.44
2021,02,09,01,18,907.18
2021,02,09,01,19,908.12
2021,02,09,01,20,908.06
2021,02,09,01,21,908.06
2021,02,09,01,22,908.06
2021,02,09,01,23,908.06
2021,02,09,01,24,908.06
2021,02,09,01,25,908.40
2021,02,09,01,26,908.77
2021,02,09,01,27,908.77
2021,02,09,01,28,907.39
2021,02,09,01,29,905.55
2021,02,09,01,30,905.90
2021,02,09,01,31,906.37
2021,02,09,01,32,906.37
2021,02,09,01,33,906.37
2021,02,09,01,34,907.03
2021,02,09,01,35,907.76
2021,02,09,01,36,907.19
2021,02,09,01,37,906.41
2021,02,09,01,38,906.23
2021,02,09,01,39,906.48
2021,02,09,01,40,906.71
2021,02,09,01,41,906.60
2021,02,09,01,42,907.48
2021,02,09,01,43,908.60
2021,02,09,01,44,908.41
2021,02,09,01,45,908.16
2021,02,09,01,46,908.16
2021,02,09,01,47,909.05
2021,02,09,01,48,909.78
2021,02,09,01,49,909.32
2021,02,09,01,50,909.16
2021,02,09,01,51,909.30
2021,02,09,01,52,909.38
2021,02,09,01,53,909.59
2021,02,09,01,54,909.79
2021,02,09,01,55,909.92
2021,02,09,01,56,910.06
2021,02,09,01,57,910.56
2021,02,09,01,58,910.76
2021,02,09,01,59,910.57
2021,02,09,02,00,910.42
2021,02,09,02,01,910.26
2021,02,09,02,02,910.61
2021,02,09,02,03,910.91
2021,02,09,02,04,910.91
2021,02,09,02,05,910.91
2021,02,09,02,06,909.38
2021,02,09,02,07,907.79
2021,02,09,02,08,907.62
2021,02,09,02,09,907.62
2021,02,09,02,10,908.18
2021,02,09,02,11,908.63
2021,02,09,02,12,908.57
2021,02,09,02,13,907.89
2021,02,09,02,14,907.32
2021,02,09,02,15,908.30
2021,02,09,02,16,909.47
2021,02,09,02,17,909.65
2021,02,09,02,18,909.58
2021,02,09,02,19,909.91
2021,02,09,02,20,910.14
2021,02,09,02,21,910.23
2021,02,09,02,22,910.30
2021,02,09,02,23,909.74
2021,02,09,02,24,909.46
2021,02,09,02,25,909.52
2021,02,09,02,26,909.54
2021,02,09,02,27,909.79
2021,02,09,02,28,910.21
2021,02,09,02,29,910.36
2021,02,09,02,30,910.36
2021,02,09,02,31,908.67
2021,02,09,02,32,907.63
2021,02,09,02,33,907.65
2021,02,09,02,34,907.65
2021,02,09,02,35,909.87
2021,02,09,02,36,911.62
2021,02,09,02,37,911.22
2021,02,09,02,38,911.10
2021,02,09,02,39,911.35
2021,02,09,02,40,911.48
2021,02,09,02,41,911.48
2021,02,09,02,42,910.35
2021,02,09,02,43,909.80
2021,02,09,02,44,910.02
2021,02,09,02,45,910.73
2021,02,09,02,46,911.18
2021,02,09,02,47,911.00
2021,02,09,02,48,910.91
2021,02,09,02,49,911.22
2021,02,09,02,50,911.36
2021,02,09,02,51,910.97
2021,02,09,02,52,911.20
2021,02,09,02,53,911.28
2021,02,09,02,54,911.18
2021,02,09,02,55,911.07
2021,02,09,02,56,911.16
2021,02,09,02,57,910.92
2021,02,09,02,58,910.76
2021,02,09,02,59,910.75
2021,02,09,03,00,910.83
2021,02,09,03,01,911.13
2021,02,09,03,02,911.22
2021,02,09,03,03,911.14
2021,02,09,03,04,910.95
2021,02,09,03,05,910.87
2021,02,09,03,06,911.78
2021,02,09,03,07,911.86
2021,02,09,03,08,911.86
2021,02,09,03,09,911.86
2021,02,09,03,10,911.65
2021,02,09,03,11,911.61
2021,02,09,03,12,911.69
2021,02,09,03,13,911.58
2021,02,09,03,14,911.04
2021,02,09,03,15,910.94
2021,02,09,03,16,911.33
2021,02,09,03,17,911.51
2021,02,09,03,18,911.56
2021,02,09,03,19,911.58
2021,02,09,03,20,911.12
2021,02,09,03,21,910.92
2021,02,09,03,22,910.91
2021,02,09,03,23,910.91
2021,02,09,03,24,910.69
2021,02,09,03,25,911.02
2021,02,09,03,26,910.91
2021,02,09,03,27,910.65
2021,02,09,03,28,910.46
2021,02,09,03,29,910.62
2021,02,09,03,30,910.52
2021,02,09,03,31,910.46
2021,02,09,03,32,911.25
2021,02,09,03,33,911.42
2021,02,09,03,34,911.54
2021,02,09,03,35,911.29
2021,02,09,03,36,911.64
2021,02,09,03,37,911.67
2021,02,09,03,38,911.60
2021,02,09,03,39,911.58
2021,02,09,03,40,910.75
2021,02,09,03,41,910.46
2021,02,09,03,42,910.46
2021,02,09,03,43,906.36
2021,02,09,03,44,905.23
2021,02,09,03,45,905.28
2021,02,09,03,46,904.03
2021,02,09,03,47,903.91
2021,02,09,03,48,903.81
2021,02,09,03,49,903.81
2021,02,09,03,50,903.58
2021,02,09,03,51,903.02
2021,02,09,03,52,903.13
2021,02,09,03,53,902.76
2021,02,09,03,54,902.47
2021,02,09,03,55,902.88
2021,02,09,03,56,902.78
2021,02,09,03,57,902.63
2021,02,09,03,58,902.61
2021,02,09,03,59,903.75
2021,02,09,04,00,904.00
2021,02,09,04,01,903.45
2021,02,09,04,02,903.32
2021,02,09,04,03,903.32
2021,02,09,04,04,901.20
2021,02,09,04,08,900.75
2021,02,09,04,09,900.56
2021,02,09,04,10,900.15
2021,02,09,04,11,900.41
2021,02,09,04,12,900.41
2021,02,09,04,16,904.00
2021,02,09,04,17,904.00
2021,02,09,04,18,904.00
2021,02,09,04,19,904.00
2021,02,09,04,20,904.00
2021,02,09,04,21,904.00
2021,02,09,04,22,904.00
2021,02,09,05,26,900.03
2021,02,09,05,27,900.03
2021,02,09,05,28,901.10
2021,02,09,05,29,902.23
2021,02,09,05,30,902.30
2021,02,09,05,31,901.51
2021,02,09,05,32,900.92
2021,02,09,05,33,901.59
2021,02,09,05,34,902.47
2021,02,09,05,35,902.78
2021,02,09,05,36,902.78
2021,02,09,05,37,902.78
2021,02,09,05,38,902.78
2021,02,09,05,39,902.78
2021,02,09,05,40,902.78
2021,02,09,05,41,902.78
2021,02,09,06,12,901.15
2021,02,09,06,13,901.15
2021,02,09,06,14,901.15
2021,02,09,06,20,900.07
2021,02,09,06,21,900.07
2021,02,09,06,22,900.07
2021,02,09,06,32,901.32
2021,02,09,06,33,901.32
2021,02,09,06,34,901.32
2021,02,09,06,40,900.07
2021,02,09,06,41,900.23
2021,02,09,06,42,900.31
2021,02,09,06,43,900.91
2021,02,09,06,44,901.58
2021,02,09,06,45,902.04
2021,02,09,06,46,902.26
2021,02,09,06,47,902.30
2021,02,09,06,48,902.30
2021,02,09,06,49,902.72
2021,02,09,06,50,902.88
2021,02,09,06,51,902.29
2021,02,09,06,52,901.63
2021,02,09,06,53,901.46
2021,02,09,06,54,901.46
2021,02,09,06,55,901.46
2021,02,09,06,56,901.46
2021,02,09,06,57,902.47
2021,02,09,06,58,903.29
2021,02,09,06,59,903.01
2021,02,09,07,00,902.85
2021,02,09,07,01,902.85
2021,02,09,07,02,904.23
2021,02,09,07,03,905.01
2021,02,09,07,04,905.36
2021,02,09,07,05,905.56
2021,02,09,07,06,905.59
2021,02,09,07,07,905.59
2021,02,09,07,08,904.65
2021,02,09,07,09,904.27
2021,02,09,07,10,905.24
2021,02,09,07,11,905.97
2021,02,09,07,12,906.13
2021,02,09,07,13,906.13
2021,02,09,07,14,904.01
2021,02,09,07,15,903.30
2021,02,09,07,16,903.29
2021,02,09,07,17,903.29
2021,02,09,07,18,903.29
2021,02,09,07,19,903.29
2021,02,09,07,20,905.39
2021,02,09,07,21,905.86
2021,02,09,07,22,905.86
2021,02,09,07,23,904.73
2021,02,09,07,24,904.71
2021,02,09,07,25,904.78
2021,02,09,07,26,904.78
2021,02,09,07,27,903.95
2021,02,09,07,28,903.78
2021,02,09,07,29,903.77
2021,02,09,07,30,904.17
2021,02,09,07,31,904.27
2021,02,09,07,32,904.27
2021,02,09,07,33,907.98
2021,02,09,07,34,909.43
2021,02,09,07,35,909.35
2021,02,09,07,36,908.91
2021,02,09,07,37,908.81
2021,02,09,07,38,908.81
2021,02,09,07,39,906.70
2021,02,09,07,40,906.30
2021,02,09,07,41,905.92
2021,02,09,07,42,905.83
2021,02,09,07,43,905.83
2021,02,09,07,44,907.72
2021,02,09,07,45,908.03
2021,02,09,07,46,908.43
2021,02,09,07,47,908.66
2021,02,09,07,48,908.17
2021,02,09,07,49,908.44
2021,02,09,07,50,908.92
2021,02,09,07,51,908.45
2021,02,09,07,52,908.46
2021,02,09,07,53,908.47
2021,02,09,07,54,908.47
2021,02,09,07,55,908.43
2021,02,09,07,56,908.43
2021,02,09,07,57,908.43
2021,02,09,07,58,908.43
2021,02,09,07,59,908.43
2021,02,09,08,00,909.13
2021,02,09,08,01,909.71
2021,02,09,08,02,909.26
2021,02,09,08,03,909.30
2021,02,09,08,04,909.26
2021,02,09,08,05,909.25
2021,02,09,08,06,909.25
2021,02,09,08,07,909.25
2021,02,09,08,08,909.77
2021,02,09,08,09,909.51
2021,02,09,08,10,909.36
2021,02,09,08,11,909.50
2021,02,09,08,12,909.14
2021,02,09,08,13,908.93
2021,02,09,08,14,908.94
2021,02,09,08,15,908.67
2021,02,09,08,16,908.03
2021,02,09,08,17,908.36
2021,02,09,08,18,908.40
2021,02,09,08,19,908.40
2021,02,09,08,20,908.40
2021,02,09,08,21,908.40
2021,02,09,08,22,908.22
2021,02,09,08,23,908.20
2021,02,09,08,24,906.81
2021,02,09,08,25,906.67
2021,02,09,08,26,907.22
2021,02,09,08,27,907.57
2021,02,09,08,28,907.40
2021,02,09,08,29,907.38
2021,02,09,08,30,907.38
2021,02,09,08,31,908.38
2021,02,09,08,32,908.43
2021,02,09,08,33,908.43
2021,02,09,08,34,906.24
2021,02,09,08,35,905.94
2021,02,09,08,36,905.93
2021,02,09,08,37,905.93
2021,02,09,08,38,906.42
2021,02,09,08,39,906.73
2021,02,09,08,40,906.30
2021,02,09,08,41,905.88
2021,02,09,08,42,905.86
2021,02,09,08,43,907.28
2021,02,09,08,44,907.72
2021,02,09,08,45,907.52
2021,02,09,08,46,907.20
2021,02,09,08,47,907.18
2021,02,09,08,48,907.18
2021,02,09,08,49,906.15
2021,02,09,08,50,906.10
2021,02,09,08,51,907.52
2021,02,09,08,52,907.21
2021,02,09,08,53,907.47
2021,02,09,08,54,907.94
2021,02,09,08,55,907.96
2021,02,09,08,56,908.26
2021,02,09,08,57,908.26
2021,02,09,08,58,908.02
2021,02,09,08,59,907.83
2021,02,09,09,00,907.96
2021,02,09,09,01,907.96
2021,02,09,09,02,907.98
2021,02,09,09,03,908.50
2021,02,09,09,04,908.34
2021,02,09,09,05,907.69
2021,02,09,09,06,907.69
2021,02,09,09,07,906.42
2021,02,09,09,08,906.91
2021,02,09,09,09,906.97
2021,02,09,09,10,908.20
2021,02,09,09,11,908.18
2021,02,09,09,12,907.78
2021,02,09,09,13,908.14
2021,02,09,09,14,908.33
2021,02,09,09,15,908.29
2021,02,09,09,16,907.89
2021,02,09,09,17,907.89
2021,02,09,09,18,908.19
2021,02,09,09,19,908.74
2021,02,09,09,20,908.45
2021,02,09,09,21,908.53
2021,02,09,09,22,907.93
2021,02,09,09,23,907.93
2021,02,09,09,24,907.93
2021,02,09,09,25,907.83
2021,02,09,09,26,907.30
2021,02,09,09,27,907.60
2021,02,09,09,28,908.16
2021,02,09,09,29,908.08
2021,02,09,09,30,908.43
2021,02,09,09,31,908.52
2021,02,09,09,32,909.42
2021,02,09,09,33,909.45
2021,02,09,09,34,909.28
2021,02,09,09,35,909.40
2021,02,09,09,36,910.62
2021,02,09,09,37,910.53
2021,02,09,09,38,910.53
2021,02,09,09,39,910.39
2021,02,09,09,40,909.10
2021,02,09,09,41,908.77
2021,02,09,09,42,908.77
2021,02,09,09,43,908.75
2021,02,09,09,44,908.64
2021,02,09,09,45,908.63
2021,02,09,09,46,908.99
2021,02,09,09,47,909.48
2021,02,09,09,48,909.70
2021,02,09,09,49,909.73
2021,02,09,09,50,909.79
2021,02,09,09,51,909.78
2021,02,09,09,52,910.32
2021,02,09,09,53,910.40
2021,02,09,09,54,910.15
2021,02,09,09,55,909.04
2021,02,09,09,56,909.17
2021,02,09,09,57,909.76
2021,02,09,09,58,909.82
2021,02,09,09,59,909.77
2021,02,09,10,00,909.41
2021,02,09,10,01,909.25
2021,02,09,10,02,909.15
2021,02,09,10,03,908.71
2021,02,09,10,04,908.58
2021,02,09,10,05,908.47
2021,02,09,10,06,908.47
2021,02,09,10,07,908.43
2021,02,09,10,08,908.33
2021,02,09,10,09,908.79
2021,02,09,10,10,908.73
2021,02,09,10,11,908.26
2021,02,09,10,12,908.39
2021,02,09,10,13,908.84
2021,02,09,10,14,908.58
2021,02,09,10,15,908.93
2021,02,09,10,16,908.91
2021,02,09,10,17,908.39
2021,02,09,10,18,908.36
2021,02,09,10,19,908.15
2021,02,09,10,20,908.66
2021,02,09,10,21,908.96
2021,02,09,10,22,908.47
2021,02,09,10,23,908.25
2021,02,09,10,24,908.23
2021,02,09,10,25,908.22
2021,02,09,10,26,908.20
2021,02,09,10,27,908.45
2021,02,09,10,28,909.09
2021,02,09,10,29,908.69
2021,02,09,10,30,908.98
2021,02,09,10,31,908.64
2021,02,09,10,32,908.64
2021,02,09,10,33,908.64
2021,02,09,10,34,908.76
2021,02,09,10,35,909.17
2021,02,09,10,36,909.37
2021,02,09,10,37,909.23
2021,02,09,10,38,909.67
2021,02,09,10,39,909.40
2021,02,09,10,40,909.11
2021,02,09,10,41,909.28
2021,02,09,10,42,909.32
2021,02,09,10,43,909.51
2021,02,09,10,44,909.72
2021,02,09,10,45,909.56
2021,02,09,10,46,909.58
2021,02,09,10,47,909.35
2021,02,09,10,48,909.47
2021,02,09,10,49,909.83
2021,02,09,10,50,909.86
2021,02,09,10,51,910.20
2021,02,09,10,52,910.26
2021,02,09,10,53,910.27
2021,02,09,10,54,910.54
2021,02,09,10,55,910.29
2021,02,09,10,56,910.63
2021,02,09,10,57,910.76
2021,02,09,10,58,910.53
2021,02,09,10,59,911.04
2021,02,09,11,00,911.32
2021,02,09,11,01,910.80
2021,02,09,11,02,910.36
2021,02,09,11,03,910.36
2021,02,09,11,04,910.57
2021,02,09,11,05,910.48
2021,02,09,11,06,910.38
2021,02,09,11,07,910.55
2021,02,09,11,08,910.35
2021,02,09,11,09,910.23
2021,02,09,11,10,909.95
2021,02,09,11,11,909.69
2021,02,09,11,12,910.00
2021,02,09,11,13,910.06
2021,02,09,11,14,909.95
2021,02,09,11,15,909.88
2021,02,09,11,16,909.81
2021,02,09,11,17,909.72
2021,02,09,11,18,909.51
2021,02,09,11,19,909.27
2021,02,09,11,20,909.32
2021,02,09,11,21,908.94
2021,02,09,11,22,908.72
2021,02,09,11,23,908.43
2021,02,09,11,24,908.66
2021,02,09,11,25,909.00
2021,02,09,11,26,909.21
2021,02,09,11,27,909.21
2021,02,09,11,28,909.09
2021,02,09,11,29,908.91
2021,02,09,11,30,909.29
2021,02,09,11,31,909.76
2021,02,09,11,32,909.62
2021,02,09,11,33,909.70
2021,02,09,11,34,909.61
2021,02,09,11,35,909.26
2021,02,09,11,36,909.08
2021,02,09,11,37,909.08
2021,02,09,11,38,909.04
2021,02,09,11,39,909.36
2021,02,09,11,40,909.62
2021,02,09,11,41,909.74
2021,02,09,11,42,910.18
2021,02,09,11,43,910.51
2021,02,09,11,44,910.53
2021,02,09,11,45,910.21
2021,02,09,11,46,909.70
2021,02,09,11,47,909.58
2021,02,09,11,48,909.91
2021,02,09,11,49,910.40
2021,02,09,11,50,910.03
2021,02,09,11,51,909.44
2021,02,09,11,52,909.27
2021,02,09,11,53,909.54
2021,02,09,11,54,909.92
2021,02,09,11,55,909.92
2021,02,09,11,56,908.94
2021,02,09,11,57,908.09
2021,02,09,11,58,908.23
2021,02,09,11,59,908.05
2021,02,09,12,00,907.82
2021,02,09,12,01,908.22
2021,02,09,12,02,908.70
2021,02,09,12,03,908.85
2021,02,09,12,04,909.19
2021,02,09,12,05,909.05
2021,02,09,12,06,908.97
2021,02,09,12,07,908.84
2021,02,09,12,08,908.37
2021,02,09,12,09,908.28
2021,02,09,12,10,908.68
2021,02,09,12,11,908.73
2021,02,09,12,12,908.50
2021,02,09,12,13,908.23
2021,02,09,12,14,908.07
2021,02,09,12,15,908.16
2021,02,09,12,16,907.99
2021,02,09,12,17,907.82
2021,02,09,12,18,907.82
2021,02,09,12,19,907.82
2021,02,09,12,20,907.82
2021,02,09,12,21,907.67
2021,02,09,12,22,907.40
2021,02,09,12,23,907.26
2021,02,09,12,24,907.32
2021,02,09,12,25,907.55
2021,02,09,12,26,907.89
2021,02,09,12,27,907.96
2021,02,09,12,28,907.91
2021,02,09,12,29,907.86
2021,02,09,12,30,907.76
2021,02,09,12,31,907.76
2021,02,09,12,32,907.76
2021,02,09,12,33,907.76
2021,02,09,12,34,905.93
2021,02,09,12,35,904.45
2021,02,09,12,36,904.87
2021,02,09,12,37,905.18
2021,02,09,12,38,905.18
2021,02,09,12,39,905.18
2021,02,09,12,40,905.18
2021,02,09,12,41,905.18
2021,02,09,12,42,905.18
2021,02,09,12,43,905.18
2021,02,09,12,44,905.18
2021,02,09,12,45,905.18
2021,02,09,12,46,905.18
2021,02,09,12,47,905.18
2021,02,09,12,48,905.18
2021,02,09,12,49,905.18
2021,02,09,12,50,905.18
2021,02,09,12,51,905.18
2021,02,09,12,52,905.18
2021,02,09,12,53,905.18
2021,02,09,12,54,905.18
2021,02,09,12,55,905.18
2021,02,09,12,56,905.18
2021,02,09,12,57,905.18
2021,02,09,12,58,905.18
2021,02,09,12,59,905.18
2021,02,09,13,00,905.18
2021,02,09,13,01,905.18
2021,02,09,13,02,905.18
2021,02,09,13,03,905.18
2021,02,09,13,04,905.18
